CW7959 Weather Reports


Display with metric or nautical units.
time (UTC)temp
F
wind
direction
speed
MPH
gust
MPH
rain 1hr
in
rain 24hr
in
rain mn
in
humidity
%
barometer
mb
20260901160403 62 225 2.0 10.0 0.00 0.41 0.41 78 1011.3
20260901155904 62 228 2.0 9.0 0.00 0.41 0.41 73 1011.3
20260901155404 63 266 3.0 12.0 0.00 0.41 0.41 74 1011.3
20260901154904 63 234 2.0 8.0 0.00 0.41 0.41 76 1011.2
20260901154403 63 219 2.0 8.0 0.00 0.41 0.41 72 1011.2
20260901153404 63 206 2.0 5.0 0.00 0.41 0.41 73 1011.1
20260901152903 62 207 3.0 12.0 0.00 0.41 0.41 75 1011.1
20260901152404 62 237 3.0 8.0 0.00 0.41 0.41 75 1011.1
20260901151904 62 200 5.0 16.0 0.00 0.41 0.41 73 1011.1
20260901151403 62 204 3.0 7.0 0.00 0.41 0.41 75 1011.0
20260901150903 63 205 3.0 7.0 0.00 0.41 0.41 75 1011.0
20260901145904 61 269 2.0 5.0 0.00 0.41 0.41 75 1011.0
20260901145404 61 271 3.0 9.0 0.00 0.41 0.41 78 1011.0
20260901144903 61 261 3.0 7.0 0.00 0.41 0.41 73 1011.0
20260901144403 61 255 3.0 9.0 0.00 0.41 0.41 75 1010.9
20260901142904 61 209 2.0 8.0 0.00 0.41 0.41 76 1010.8
20260901142403 61 213 4.0 7.0 0.00 0.41 0.41 76 1010.9
20260901141403 60 194 1.0 7.0 0.00 0.41 0.41 81 1010.8
20260901140903 60 190 5.0 12.0 0.00 0.41 0.41 78 1010.8
20260901135904 61 211 5.0 8.0 0.00 0.41 0.41 78 1010.8
20260901135404 61 200 5.0 8.0 0.00 0.41 0.41 80 1010.7
20260901134904 60 278 2.0 3.0 0.00 0.41 0.41 80 1010.7
20260901133904 60 286 1.0 3.0 0.00 0.41 0.41 85 1010.6
20260901133405 60 287 1.0 8.0 0.00 0.41 0.41 82 1010.5
20260901132404 60 296 1.0 6.0 0.00 0.41 0.41 81 1010.5
20260901131905 60 303 2.0 9.0 0.00 0.41 0.41 81 1010.5
20260901131405 61 266 3.0 10.0 0.00 0.41 0.41 81 1010.4
20260901130905 62 257 1.0 9.0 0.00 0.41 0.41 82 1010.4
20260901125904 62 207 2.0 7.0 0.00 0.41 0.41 84 1010.3
20260901124904 61 187 1.0 6.0 0.00 0.41 0.41 88 1010.2
20260901124406 62 187 4.0 12.0 0.00 0.41 0.41 84 1010.2
20260901123905 62 225 1.0 8.0 0.00 0.41 0.41 93 1010.2
20260901123405 60 279 1.0 3.0 0.00 0.41 0.41 92 1010.1
20260901122904 59 279 0.0 3.0 0.00 0.41 0.41 91 1010.1
20260901121904 59 284 2.0 6.0 0.00 0.41 0.41 92 1010.0
20260901121404 58 271 1.0 7.0 0.00 0.41 0.41 93 1010.0
20260901120904 58 330 4.0 8.0 0.00 0.41 0.41 91 1010.0
20260901120406 59 248 1.0 3.0 0.00 0.41 0.41 92 1010.0
20260901115405 58 248 3.0 6.0 0.00 0.41 0.41 91 1009.9
20260901114904 59 246 1.0 3.0 0.00 0.41 0.41 91 1009.8
20260901114405 58 246 2.0 6.0 0.00 0.41 0.41 90 1009.7
20260901113904 58 246 3.0 6.0 0.00 0.41 0.41 91 1009.7
20260901113405 58 238 2.0 8.0 0.00 0.41 0.41 92 1009.8
20260901112905 59 243 2.0 9.0 0.00 0.41 0.41 92 1009.7
20260901112404 59 228 1.0 8.0 0.00 0.41 0.41 91 1009.7
20260901111905 60 196 5.0 10.0 0.00 0.41 0.41 92 1009.5
20260901111405 61 208 5.0 10.0 0.00 0.41 0.41 94 1009.4
20260901110904 60 274 2.0 5.0 0.00 0.41 0.41 95 1009.3
20260901110405 59 274 1.0 3.0 0.02 0.41 0.41 94 1009.5
20260901105405 59 274 3.0 12.0 0.07 0.41 0.41 95 1009.5
20260901104905 59 208 3.0 9.0 0.07 0.41 0.41 95 1009.3
20260901104405 59 217 1.0 9.0 0.07 0.41 0.41 95 1009.1
20260901103904 59 217 1.0 5.0 0.07 0.41 0.41 95 1009.2
20260901103404 59 217 1.0 6.0 0.07 0.41 0.41 95 1009.2
20260901102904 59 217 2.0 7.0 0.08 0.41 0.41 96 1009.3
20260901101905 58 211 5.0 12.0 0.09 0.41 0.41 96 1008.9
20260901101404 59 223 2.0 6.0 0.09 0.41 0.41 96 1008.9
20260901100904 59 217 4.0 10.0 0.10 0.41 0.41 96 1008.7
20260901100404 59 209 3.0 7.0 0.09 0.39 0.39 96 1008.7
20260901095905 59 208 2.0 12.0 0.06 0.34 0.34 96 1008.4
20260901095405 59 227 5.0 15.0 0.06 0.34 0.34 96 1008.3
20260901094905 59 211 2.0 7.0 0.07 0.34 0.34 97 1008.5
20260901094404 59 209 5.0 9.0 0.08 0.34 0.34 96 1008.7
20260901093905 59 206 3.0 12.0 0.09 0.34 0.34 96 1008.6
20260901093405 59 231 2.0 10.0 0.10 0.34 0.34 96 1008.7
20260901092904 58 196 2.0 5.0 0.11 0.33 0.33 96 1008.5
20260901092405 58 196 3.0 12.0 0.13 0.33 0.33 96 1008.6
20260901091405 58 218 3.0 12.0 0.15 0.31 0.31 96 1008.6
20260901090904 58 255 2.0 10.0 0.17 0.31 0.31 96 1008.6
20260901090405 58 209 3.0 8.0 0.17 0.30 0.30 96 1008.6
20260901085904 58 212 6.0 12.0 0.16 0.28 0.28 96 1008.6
20260901085405 58 237 6.0 17.0 0.17 0.28 0.28 96 1008.3
20260901084905 58 211 5.0 18.0 0.17 0.28 0.27 96 1008.2
20260901084404 58 208 7.0 18.0 0.17 0.29 0.26 96 1008.1
20260901083405 57 204 5.0 14.0 0.17 0.27 0.24 96 1008.1
20260901082904 57 205 6.0 13.0 0.15 0.26 0.22 96 1008.0
20260901082404 57 273 3.0 9.0 0.13 0.25 0.20 96 1008.1
20260901081904 57 204 2.0 8.0 0.12 0.24 0.18 96 1008.1
20260901081404 57 183 3.0 14.0 0.10 0.22 0.17 96 1008.1
20260901080905 57 197 3.0 7.0 0.09 0.20 0.14 96 1008.0
20260901080404 57 194 1.0 9.0 0.07 0.18 0.13 96 1007.9
20260901075905 57 215 4.0 9.0 0.06 0.17 0.12 95 1007.9
20260901075404 57 230 4.0 14.0 0.06 0.17 0.11 95 1008.1
20260901074905 57 213 2.0 6.0 0.05 0.16 0.10 95 1008.2
20260901073904 57 208 3.0 9.0 0.02 0.13 0.08 95 1008.4
20260901073405 57 208 3.0 7.0 0.02 0.13 0.07 95 1008.2
20260901072905 57 211 3.0 8.0 0.02 0.13 0.07 95 1008.3
20260901072405 57 216 5.0 13.0 0.02 0.13 0.07 95 1008.5
20260901071904 57 202 2.0 13.0 0.01 0.12 0.06 95 1008.5
20260901071404 57 218 3.0 7.0 0.01 0.12 0.06 95 1008.5
20260901070903 57 207 4.0 12.0 0.00 0.11 0.06 95 1008.5
20260901070404 57 208 5.0 16.0 0.00 0.11 0.06 95 1008.6
20260901065904 57 223 3.0 12.0 0.00 0.11 0.06 95 1008.6
20260901065404 57 201 5.0 13.0 0.00 0.11 0.06 95 1008.7
20260901064904 57 216 5.0 7.0 0.00 0.11 0.06 95 1008.7
20260901064404 57 213 5.0 13.0 0.00 0.11 0.06 95 1008.7
20260901063904 57 205 3.0 12.0 0.00 0.11 0.06 95 1008.7
20260901063404 57 211 4.0 10.0 0.00 0.11 0.06 95 1008.7
20260901062404 57 210 5.0 10.0 0.00 0.11 0.06 95 1008.8
20260901061904 57 207 5.0 14.0 0.00 0.11 0.06 95 1008.8
20260901061404 57 208 8.0 17.0 0.00 0.11 0.06 95 1008.8
20260901060903 57 153 6.0 20.0 0.01 0.11 0.06 95 1008.8
20260901060405 57 209 5.0 15.0 0.01 0.11 0.06 95 1008.8
20260901055903 57 206 5.0 12.0 0.01 0.11 0.06 95 1008.8
20260901055404 57 211 3.0 10.0 0.01 0.11 0.06 95 1008.8
20260901054904 57 197 6.0 13.0 0.02 0.11 0.06 95 1008.9
20260901054404 57 216 3.0 10.0 0.02 0.11 0.06 95 1008.9
20260901053904 57 219 3.0 9.0 0.02 0.11 0.06 95 1009.0
20260901053404 56 206 9.0 14.0 0.02 0.11 0.06 95 1008.9
20260901052405 56 214 3.0 14.0 0.02 0.11 0.06 95 1008.9
20260901051904 56 219 6.0 13.0 0.02 0.11 0.06 95 1008.9
20260901051404 56 214 3.0 12.0 0.02 0.11 0.06 95 1008.9
20260901050905 56 212 5.0 12.0 0.01 0.10 0.05 96 1009.1
20260901050404 56 217 5.0 12.0 0.01 0.10 0.05 96 1009.1
20260901045905 56 213 3.0 10.0 0.01 0.10 0.05 96 1009.2
20260901045405 56 216 6.0 14.0 0.01 0.10 0.05 96 1009.3
20260901044904 56 209 4.0 8.0 0.00 0.09 0.04 96 1009.4
20260901044406 56 210 5.0 8.0 0.01 0.09 0.04 96 1009.5
20260901043905 56 207 5.0 10.0 0.02 0.09 0.04 96 1009.6
20260901043404 56 215 6.0 14.0 0.02 0.09 0.04 96 1009.7
20260901042904 56 209 5.0 12.0 0.02 0.09 0.04 96 1009.7
20260901042405 56 208 3.0 12.0 0.02 0.09 0.04 96 1009.8
20260901041904 56 206 6.0 14.0 0.02 0.09 0.04 96 1009.8
20260901041404 56 211 3.0 9.0 0.02 0.09 0.04 96 1009.9
20260901040904 56 209 2.0 10.0 0.02 0.09 0.04 96 1010.0
20260901040405 56 210 4.0 12.0 0.02 0.09 0.04 96 1010.0
20260901035405 56 210 3.0 9.0 0.02 0.09 0.04 96 1010.0
20260901034905 56 215 2.0 9.0 0.02 0.09 0.04 96 1010.1
20260901034405 55 217 2.0 7.0 0.02 0.09 0.03 96 1010.0
20260901033905 55 220 1.0 5.0 0.01 0.08 0.02 96 1010.2
20260901033404 55 220 0.0 0.0 0.00 0.07 0.02 96 1010.2
20260901032904 55 220 0.0 2.0 0.00 0.07 0.02 96 1010.3
20260901032404 55 220 0.0 1.0 0.00 0.07 0.02 96 1010.4
20260901031904 55 220 0.0 1.0 0.00 0.07 0.02 96 1010.4
20260901031405 55 220 0.0 0.0 0.00 0.07 0.02 96 1010.4
20260901030404 55 220 1.0 5.0 0.00 0.07 0.02 96 1010.6
20260901025904 55 220 0.0 6.0 0.00 0.07 0.02 96 1010.7
20260901025404 55 220 0.0 1.0 0.00 0.07 0.02 96 1010.7
20260901024904 55 220 0.0 0.0 0.00 0.07 0.02 96 1010.7
20260901023904 55 220 0.0 0.0 0.00 0.07 0.02 96 1010.9
20260901022404 55 220 0.0 3.0 0.01 0.07 0.02 96 1011.2
20260901021905 55 220 0.0 0.0 0.01 0.07 0.02 96 1011.2
20260901021404 55 220 0.0 0.0 0.01 0.07 0.02 96 1011.3
20260901020404 55 220 2.0 10.0 0.01 0.07 0.02 96 1011.4
20260901015904 55 220 1.0 7.0 0.01 0.07 0.02 96 1011.4
20260901015405 55 213 3.0 10.0 0.01 0.07 0.02 96 1011.5
20260901014906 55 209 3.0 13.0 0.01 0.07 0.02 96 1011.5
20260901014406 55 227 2.0 7.0 0.01 0.07 0.02 96 1011.5
20260901013905 55 228 2.0 3.0 0.01 0.07 0.02 96 1011.4
20260901013405 55 228 1.0 5.0 0.00 0.06 0.01 96 1011.4
20260901012904 55 229 1.0 3.0 0.00 0.06 0.01 96 1011.3
20260901012404 55 229 0.0 7.0 0.00 0.06 0.01 96 1011.4
20260901011904 55 232 1.0 8.0 0.00 0.06 0.01 96 1011.4
20260901011404 55 234 1.0 8.0 0.01 0.06 0.01 96 1011.4
20260901010904 55 212 2.0 7.0 0.01 0.06 0.01 96 1011.4
20260901010405 55 212 3.0 9.0 0.01 0.06 0.01 96 1011.4
20260901005904 55 226 2.0 10.0 0.01 0.06 0.01 96 1011.4
20260901005405 55 287 1.0 3.0 0.01 0.06 0.01 96 1011.5
20260901004904 55 287 1.0 6.0 0.01 0.06 0.01 96 1011.4
20260901003904 55 293 1.0 3.0 0.01 0.06 0.01 96 1011.5
20260901003405 55 293 0.0 0.0 0.01 0.06 0.01 96 1011.5
20260901002905 55 293 0.0 0.0 0.01 0.06 0.01 95 1011.5
20260901002405 55 293 0.0 0.0 0.01 0.06 0.01 95 1011.6
20260901001905 55 293 0.0 0.0 0.01 0.06 0.01 95 1011.6
20260901001405 55 293 0.0 2.0 0.00 0.06 0.00 95 1011.7
20260901000904 55 293 0.0 0.0 0.00 0.06 0.00 95 1011.8
20260901000405 54 293 0.0 2.0 0.00 0.06 0.00 95 1011.9
20260831235904 54 293 0.0 0.0 0.00 0.06 0.00 95 1012.1
20260831235404 54 293 0.0 0.0 0.00 0.06 0.00 95 1012.1
20260831234405 54 293 0.0 1.0 0.00 0.06 0.00 95 1012.1
20260831233904 54 293 0.0 0.0 0.00 0.06 0.00 95 1012.1
20260831233404 54 293 0.0 1.0 0.00 0.06 0.00 95 1012.2
20260831232904 54 293 0.0 2.0 0.00 0.06 0.00 95 1012.3
20260831231904 54 293 0.0 3.0 0.00 0.06 0.00 95 1012.4
20260831231405 54 293 0.0 0.0 0.00 0.06 0.00 95 1012.4
20260831230904 54 293 0.0 2.0 0.00 0.06 0.00 95 1012.4
20260831230404 54 293 0.0 1.0 0.00 0.06 0.00 95 1012.5
20260831225904 54 293 0.0 2.0 0.00 0.06 0.06 95 1012.6
20260831225404 54 293 1.0 3.0 0.00 0.06 0.06 95 1012.5
20260831223904 54 293 0.0 2.0 0.00 0.06 0.06 95 1012.6
20260831223405 54 293 0.0 0.0 0.00 0.06 0.06 95 1012.6
20260831222904 54 293 1.0 6.0 0.00 0.06 0.06 95 1012.7
20260831222404 53 294 1.0 5.0 0.00 0.06 0.06 94 1012.7
20260831221404 53 302 1.0 5.0 0.00 0.06 0.06 94 1012.9
20260831220905 53 302 0.0 2.0 0.00 0.06 0.06 94 1012.8
20260831220405 53 302 0.0 0.0 0.00 0.06 0.06 94 1012.8
20260831215405 53 302 0.0 0.0 0.00 0.07 0.06 94 1012.9
20260831214905 53 302 0.0 0.0 0.00 0.08 0.06 94 1012.9
20260831214405 53 302 0.0 0.0 0.00 0.10 0.06 94 1012.9
20260831213405 53 302 0.0 0.0 0.00 0.13 0.06 94 1012.9
20260831212904 53 302 0.0 0.0 0.00 0.14 0.06 94 1013.0
20260831212404 53 303 0.0 0.0 0.00 0.16 0.06 93 1013.0
20260831210904 54 302 0.0 0.0 0.00 0.17 0.06 93 1013.0
20260831205404 54 303 0.0 0.0 0.00 0.17 0.06 93 1013.2
20260831204904 54 302 0.0 0.0 0.00 0.17 0.06 93 1013.2
20260831204404 54 302 0.0 0.0 0.00 0.17 0.06 93 1013.3
20260831203904 54 302 0.0 0.0 0.00 0.17 0.06 93 1013.2
20260831203405 54 302 0.0 0.0 0.00 0.17 0.06 93 1013.2
20260831202905 54 302 0.0 0.0 0.00 0.17 0.06 92 1013.2
20260831201905 54 302 0.0 0.0 0.00 0.17 0.06 92 1013.2
20260831201404 54 302 0.0 0.0 0.00 0.17 0.06 92 1013.2
20260831200904 54 302 0.0 0.0 0.00 0.17 0.06 92 1013.3
20260831200404 54 302 0.0 0.0 0.00 0.17 0.06 92 1013.2
20260831195905 54 302 0.0 0.0 0.00 0.17 0.06 92 1013.3
20260831195404 54 302 0.0 0.0 0.00 0.17 0.06 92 1013.3
20260831194904 54 302 0.0 2.0 0.00 0.17 0.06 91 1013.2
20260831194405 54 302 0.0 0.0 0.00 0.17 0.06 91 1013.3
20260831193905 54 302 0.0 0.0 0.00 0.17 0.06 91 1013.3
20260831193404 55 302 0.0 1.0 0.00 0.17 0.06 91 1013.3
20260831192404 55 302 1.0 3.0 0.00 0.17 0.06 91 1013.2
20260831191904 55 303 0.0 2.0 0.00 0.17 0.06 91 1013.3
20260831191405 55 302 1.0 3.0 0.00 0.17 0.06 91 1013.2
20260831190904 55 303 1.0 3.0 0.00 0.17 0.06 90 1013.0
20260831190404 55 305 0.0 1.0 0.00 0.17 0.06 90 1012.7
20260831185904 55 305 0.0 0.0 0.00 0.17 0.06 90 1012.6
20260831185404 55 305 0.0 3.0 0.00 0.17 0.06 90 1012.5
20260831184904 55 305 0.0 3.0 0.00 0.18 0.06 91 1012.4
20260831184404 55 305 1.0 2.0 0.00 0.20 0.06 91 1012.5
20260831183905 55 305 0.0 0.0 0.00 0.22 0.06 91 1012.4
20260831183404 55 305 0.0 0.0 0.00 0.24 0.06 91 1012.4
20260831182904 55 305 0.0 1.0 0.00 0.27 0.06 91 1012.4
20260831182404 55 305 0.0 0.0 0.00 0.29 0.06 90 1012.4
20260831181904 55 305 0.0 0.0 0.00 0.30 0.06 89 1012.4
20260831181405 55 305 0.0 0.0 0.00 0.33 0.06 88 1012.4
20260831180905 56 305 0.0 0.0 0.00 0.36 0.06 86 1012.3
20260831180404 56 305 0.0 0.0 0.00 0.36 0.06 86 1012.4
20260831175904 56 305 0.0 0.0 0.00 0.36 0.06 85 1012.3
20260831175404 56 305 0.0 0.0 0.00 0.36 0.06 84 1012.4
20260831174904 57 305 0.0 3.0 0.00 0.36 0.06 80 1012.3
20260831174404 57 305 0.0 2.0 0.00 0.36 0.06 79 1012.3
20260831173905 57 305 0.0 2.0 0.00 0.36 0.06 78 1012.2
20260831173404 57 305 1.0 5.0 0.00 0.36 0.06 77 1012.2
20260831172904 57 305 2.0 5.0 0.00 0.36 0.06 78 1012.2
20260831171904 57 305 1.0 3.0 0.00 0.36 0.06 78 1012.1
20260831171404 58 305 0.0 3.0 0.00 0.36 0.06 76 1012.1
20260831170904 58 305 1.0 6.0 0.00 0.36 0.06 76 1012.0
20260831170404 58 305 1.0 5.0 0.00 0.36 0.06 78 1012.1
20260831165904 58 305 2.0 6.0 0.00 0.36 0.06 78 1012.0
20260831164905 58 306 0.0 3.0 0.00 0.36 0.06 76 1011.9
20260831163905 58 283 2.0 9.0 0.00 0.38 0.06 75 1011.8
20260831163404 58 294 1.0 3.0 0.00 0.42 0.06 75 1011.7
20260831162904 58 293 2.0 5.0 0.00 0.46 0.06 75 1011.6
20260831162405 58 292 2.0 6.0 0.00 0.51 0.06 76 1011.7
20260831161904 58 291 1.0 7.0 0.00 0.54 0.06 78 1011.7
20260831161405 58 257 2.0 5.0 0.00 0.57 0.06 79 1011.7